sat.trackr.live / text

‹ back to catalog

STARLINK-2712

NORAD 48674 · 2021-044AN

PAYLOAD ACTIVE UNKNOWN

§ Identity

Operator
Country
US
Launch date
2021-05-26
Launch site
AFETR
Launch vehicle
Mass (kg)
RCS (m²)

Purposes: comms

External: N2YO · Heavens-Above · Gunter

§ Orbital elements

Epoch: 2026-05-25T04:46:33.390048Z

Period
94.16 min
Inclination
53.1617°
Eccentricity
0.0001203
Mean motion
15.29351221 rev/d
Perigee alt
476.9 km
Apogee alt
478.6 km
Semi-major
6,855.9 km
B*
-2.9832e-6
RAAN
118.5664°
Arg perigee
91.4257°
Mean anomaly
268.6881°
Rev number
27,552

§ Raw data

STARLINK-27121 48674U 21044AN  26145.19899757 -.00000442  00000+0 -29832-5 0  99932 48674  53.1617 118.5664 0001203  91.4257 268.6881 15.29351221275520

JSON: /api/v1/satellites/48674 · /tle

For live sub-satellite position, see the globe view (requires WebGL).

§ Visibility from observer

Set your observer location to see the next 7 days of passes ≥ 10°. The values pass through the URL so the page stays shareable.

No JS? Fill the form by hand. The geolocation button needs JavaScript.